Location: Newark
(49.8348°N, 24.0280°E)
Time: 10:43:14
(UTC+00:00)

Vanguard 2 - Visible Passes

Search period start: 25 January 2020 00:00
Search period end: 04 February 2020 00:00
Orbit: 553 x 2938 km, 32.9° (Epoch: 24 January)

Date Brightness Start Highest point End Pass type
(mag) Time Alt. Az. Time Alt. Az. Time Alt. Az.
31 Jan 12.3 04:55:05 10° SSE 05:02:08 14° SE 05:08:35 10° ESE visible
01 Feb 12.2 05:09:23 10° S 05:19:32 19° SSE 05:28:27 10° ESE visible
02 Feb 12.0 05:24:52 10° SSW 05:36:58 23° SSE 05:47:19 10° ESE visible
03 Feb 12.2 03:39:26 10° SSE 03:45:08 12° SE 03:50:39 10° ESE visible
